Location: Godiavel Galaoual
(15.2485°N, 12.6604°W)
Time: 15:58:17
(UTC+00:00)

LightSail 2 - Visible Passes

Search period start: 04 June 2020 00:00
Search period end: 14 June 2020 00:00
Orbit: 694 x 720 km, 24.0° (Epoch: 03 June)

Date Brightness Start Highest point End Pass type
(mag) Time Alt. Az. Time Alt. Az. Time Alt. Az.
04 Jun 6.3 04:18:07 28° NNW 04:20:02 38° N 04:24:49 10° ENE visible
04 Jun 6.8 20:14:57 10° S 20:17:41 14° SSE 20:17:45 14° SSE visible
05 Jun 7.3 03:22:19 23° NE 03:22:19 23° NE 03:24:39 10° ENE visible
05 Jun 5.5 05:01:11 13° WNW 05:05:47 63° NNE 05:10:54 10° E visible
05 Jun 6.2 20:58:29 10° SW 21:01:32 29° SSW 21:01:32 29° SSW visible
06 Jun 5.8 04:05:31 48° N 04:05:51 49° NNE 04:10:49 10° E visible
06 Jun 5.2 05:46:16 10° WNW 05:51:19 62° SSW 05:56:25 10° ESE visible
06 Jun 6.2 19:59:11 10° SSW 20:03:17 25° SSE 20:06:23 14° ESE visible
06 Jun 7.0 21:43:29 10° WSW 21:45:17 22° WSW 21:45:17 22° WSW visible
07 Jun 7.8 03:10:00 13° ENE 03:10:00 13° ENE 03:10:41 10° E visible
07 Jun 5.0 04:48:54 30° WNW 04:51:27 86° SSW 04:56:37 10° ESE visible
07 Jun 5.1 20:43:43 10° WSW 20:48:41 60° SSE 20:50:06 43° E visible
08 Jun 6.3 03:53:31 37° E 03:53:31 37° E 03:56:40 10° ESE visible
08 Jun 5.7 05:32:26 11° W 05:36:54 37° SSW 05:41:39 10° SE visible
08 Jun 5.6 19:44:06 10° SW 19:48:52 41° SSE 19:53:36 10° E visible
08 Jun 5.5 21:29:11 10° W 21:33:42 60° NW 21:33:42 60° NW visible
09 Jun 5.2 04:37:10 54° SSW 04:37:10 54° SSW 04:42:03 10° SE visible
09 Jun 5.1 20:29:13 10° WSW 20:34:18 86° NNW 20:38:14 17° ENE visible
09 Jun 7.3 22:15:13 10° WNW 22:17:08 21° WNW 22:17:08 21° WNW visible
10 Jun 7.7 03:41:59 12° ESE 03:41:59 12° ESE 03:42:18 10° ESE visible
10 Jun 6.3 05:20:54 20° SW 05:22:26 22° SSW 05:26:25 10° SSE visible
10 Jun 6.0 21:15:03 10° W 21:19:54 45° NNW 21:21:30 34° NNE visible
11 Jun 7.0 04:25:43 17° SSE 04:25:43 17° SSE 04:27:08 10° SE visible
11 Jun 5.7 20:14:56 10° W 20:19:56 58° NNW 20:24:54 10° ENE visible
11 Jun 6.9 22:01:11 10° WNW 22:04:35 29° NNW 22:04:35 29° NNW visible
12 Jun 7.1 05:09:25 12° S 05:09:25 12° S 05:10:18 10° S visible
12 Jun 6.4 21:00:59 10° WNW 21:05:38 35° N 21:08:39 19° NE visible
12 Jun 8.1 22:47:09 10° WNW 22:47:31 12° WNW 22:47:31 12° WNW visible
13 Jun 6.2 20:00:47 10° W 20:05:36 42° NNW 20:10:24 10° ENE visible
13 Jun 6.7 21:47:04 10° WNW 21:51:26 29° N 21:51:26 29° N visible
